Location: Cactus School
(34.5700°N, 118.0931°W)
Time: 05:06:35
(UTC-08:00)

Tiros 1 - Pass Details

Date: 23 November 2019
Orbit: 630 x 664 km, 48.4° (Epoch: 13 December)

Event Time Altitude Azimuth Distance (km) Brightness Sun altitude
Rises 12:01:11 0° 239° (WSW) 2,914 11.0 34.8°
Reaches altitude 10° 12:03:31 10° 243° (WSW) 2,005 10.2 34.7°
Maximum altitude 12:08:06 64° 325° (NW) 695 7.6 34.6°
Drops below altitude 10° 12:12:41 10° 47° (NE) 2,007 9.4 34.4°
Sets 12:15:01 0° 51° (NE) 2,917 10.1 34.3°
